Tracking 32140 objects as of 13-Nov-2025
HD Live streaming from Space Station
objects crossing your sky now

LEMUR 1

Track LEMUR 1 now!
10-day predictions
LEMUR 1 is classified as:


NORAD ID: 40044
Int'l Code: 2014-033AL
Perigee: 588.5 km
Apogee: 659.4 km
Inclination: 97.8 °
Period: 97.0 minutes
Semi major axis: 6994 km
RCS: Unknown
Launch date: June 19, 2014
Source: United States (US)
Launch site: Orenburg, Russia (OREN)
Your satellite tracking list
Your tracking list is empty




NASA's NSSDC Master Catalog

Two Line Element Set (TLE):
1 40044U 14033AL  25317.42499209  .00007182  00000-0  84972-3 0  9991
2 40044  97.7589 107.5988 0050656  66.5574 294.0955 14.83973400613454
Source of the keplerian elements: AFSPC